星链-36000(STARLINK-36000)

导读

STARLINK-36000是美国于2025年12月1日发射的星链系列卫星,隶属于SpaceX公司的星链星座项目。星链项目旨在构建全球卫星互联网星座,为全球提供高速低延迟的宽带网络服务,该卫星入轨后将进一步扩充星链星座的规模,提升星座全球覆盖与服务能力。

Basic Information
目录编号:
66807
目录名称:
STARLINK-36000
国际标识:
2025-278S
轨道中心:
EARTH
卫星名称:
星链-36000
卫星全名:
星链-36000(STARLINK-36000)
卫星状态:
在轨 (已飞行277 天)
发射日期:
2025-12-01 UTC
国别 :
美国 (US)
星等 :
--
Orbit Information
数据来源 国际轨道数据
星历时间: 2026-09-04T05:17:58+0800
13小时前
查看轨道信息
半长轴: 6861.145km
偏心率: 0.000048
轨道倾角: 42.999°
近地点辐角 224.933°
升交点赤经 187.873°
平近点角 135.148°
近地点: 482.678km
远地点: 483.338km
周期: 94.266分钟
每日圈数: 15.275939
Detailed Information
固有亮度:
5
最大亮度:
2.5
卫星平台:
Starlink V1.0
覆盖范围:
全球
运营商:
太空探索技术公司
运营商所在国:
美国
制造商(研发单位):
太空探索技术公司
制造商所在国:
美国
使用方式:
暂无
Satellite Introduction
Starlink 计划是 SpaceX 推出的全球卫星互联网项目,通过发射低轨道卫星,为全球尤其是偏远地区提供高速、低延迟的互联网服务。自 2019 年起,Starlink 已部署数千颗卫星,旨在缩小全球数字鸿沟,推动互联网普及。该项目还为军事、航空等行业提供通信支持,带来广泛经济效益。
2D Orbit Map
3D Orbit Map
Orbit Altitude Analysis Chart
Orbit Inclination Analysis Chart
Orbit Comprehensive Analysis Chart
View Comprehensive Chart
Conjunction Data List
Event ID Objects TCA Miss Dist (km) Collision Risk Probability Collision Risk Index (CRI) Action
CDM_260906-141805-734106-680721
2026-09-06T
14:18:36+0000
0.494 km
远距离
1.653279E-4 高风险 0.79
CDM_260905-211206-453006-680721
2026-09-05T
21:12:57+0000
1.700 km
极远距离
4.420487E-6 低风险 0.48
CDM_260905-094205-692106-680721
2026-09-05T
09:42:33+0000
1.556 km
极远距离
2.478908E-6 低风险 0.43
CDM_260905-202506-453006-680721
2026-09-05T
20:25:50+0000
2.385 km
极远距离
1.881205E-6 低风险 0.4
CDM_260905-041305-692106-680721
2026-09-05T
04:13:01+0000
1.731 km
极远距离
1.822253E-6 低风险 0.4
CDM_260906-124405-734106-680721
2026-09-06T
12:44:26+0000
2.425 km
极远距离
1.456174E-6 低风险 0.38
CDM_260906-125404-860606-680721
2026-09-06T
12:54:16+0000
2.581 km
极远距离
1.413442E-6 低风险 0.38
CDM_260906-155305-745106-680721
2026-09-06T
15:53:21+0000
2.503 km
极远距离
1.383847E-6 低风险 0.38
CDM_260903-041706-471906-680721
2026-09-03T
04:17:25+0000
2.074 km
极远距离
1.362899E-6 低风险 0.38
CDM_260905-054705-692106-680721
2026-09-05T
05:47:10+0000
2.017 km
极远距离
1.239324E-6 低风险 0.37